This is the latest recevied weather packets stored in our database for station/object N0KWA. If no packets are shown the sender has not sent any weather packets the latest 10 day(s).
| Time | Temp. | Humidity | Pressure | Rain* | Wind** | Luminosity | Snow |
|---|---|---|---|---|---|---|---|
| 1777033882 | 17.78° C | 99% | 1014.4 hPa | 0 mm | - | 3 W/m² | - |
| 1777033578 | 17.78° C | 99% | 1014.4 hPa | 0 mm | - | 17 W/m² | - |
| 1777033275 | 17.22° C | 99% | 1014.3 hPa | 0 mm | - | 11 W/m² | - |
| 1777032972 | 17.22° C | 99% | 1014 hPa | 0 mm | - | 7 W/m² | - |
| 1777032668 | 17.22° C | 99% | 1014.2 hPa | 0 mm | - | 5 W/m² | - |
| 1777032363 | 17.22° C | 99% | 1014 hPa | 0 mm | - | 3 W/m² | - |
| 1777032058 | 17.22° C | 99% | 1014.2 hPa | 0 mm | - | 3 W/m² | - |
| 1777031754 | 17.22° C | 99% | 1013.9 hPa | 0 mm | - | 1 W/m² | - |
| 1777031448 | 17.22° C | 99% | 1013.7 hPa | 0 mm | - | 0 W/m² | - |
| 1777031143 | 17.22° C | 99% | 1013.6 hPa | 0 mm | - | 1 W/m² | - |
| 1777030840 | 17.22° C | 99% | 1013.8 hPa | 0 mm | - | 0 W/m² | - |
| 1777030535 | 17.22° C | 99% | 1013.7 hPa | 0 mm | - | 0 W/m² | - |
| 1777030231 | 17.22° C | 99% | 1013.4 hPa | 0 mm | - | 0 W/m² | - |
| 1777029927 | 16.67° C | 99% | 1013.6 hPa | 0 mm | - | 0 W/m² | - |
| 1777029624 | 16.67° C | 99% | 1013.5 hPa | 0 mm | - | 0 W/m² | - |
| 1777029323 | 16.67° C | 99% | 1013.6 hPa | 0 mm | - | 0 W/m² | - |
| 1777029019 | 16.67° C | 99% | 1013.5 hPa | 0 mm | - | 0 W/m² | - |
| 1777028717 | 16.67° C | 99% | 1013.4 hPa | 0 mm | - | 0 W/m² | - |
| 1777028412 | 16.67° C | 99% | 1013.3 hPa | 0 mm | - | 0 W/m² | - |
| 1777028108 | 16.67° C | 99% | 1013.5 hPa | 0 mm | - | 0 W/m² | - |
| 1777027803 | 16.67° C | 99% | 1013.4 hPa | 0 mm | - | 0 W/m² | - |
| 1777027499 | 16.67° C | 99% | 1013.3 hPa | 0 mm | - | 0 W/m² | - |
| 1777027196 | 16.67° C | 99% | 1013.3 hPa | 0 mm | - | 0 W/m² | - |
| 1777026892 | 16.67° C | 99% | 1013.3 hPa | 0 mm | - | 0 W/m² | - |
| 1777026589 | 16.67° C | 99% | 1013.3 hPa | 0 mm | - | 0 W/m² | - |
* Rain latest hour (hover to see other rain measurements)
** Current wind speed in m/s (hover to see current wind gust speed)